Powrót do katalogu

THOR ABLESTAR DEB

AktywnyLEO
NORAD 136·DEBRIS·🇺🇸 United States

Wystrzelony Jun 29, 1961 z Cape Canaveral Space Force Station

Loading…

Następne Przeloty (najbliższe 24 godziny)

TLE

ŚwieżeSource: Space-Track

Epoka: Sep 5, 2026, 15:31 UTC

1 00136U 61015W   26248.64706525  .00000672  00000-0  22510-3 0  9998
2 00136  67.5271  73.4083 0046909 315.8889  43.8484 14.42308536368368

Śledź THOR ABLESTAR DEB w czasie rzeczywistym z AllMySat

Download on the App Store